CST,Max TemperatureF,Mean TemperatureF,Min TemperatureF,Max Dew PointF,MeanDew PointF,Min DewpointF,Max Humidity, Mean Humidity, Min Humidity, Max Sea Level PressureIn, Mean Sea Level PressureIn, Min Sea Level PressureIn, Max VisibilityMiles, Mean VisibilityMiles, Min VisibilityMiles, Max Wind SpeedMPH, Mean Wind SpeedMPH, Max Gust SpeedMPH,PrecipitationIn, CloudCover, Events, WindDirDegrees
2012-11-1,80,62,44,37,29,23,50,33,16,,,,,,,15,8,,0.00,,,214
2012-11-2,75,62,46,31,25,17,50,27,19,,,,,,,18,11,,0.00,,,323
2012-11-3,61,49,37,36,29,25,71,52,33,,,,,,,12,7,,0.00,,,52
2012-11-4,70,54,39,35,29,23,60,43,25,,,,,,,13,8,,0.00,,,264
2012-11-5,66,56,45,33,29,24,52,40,28,,,,,,,15,7,,0.00,,,311
2012-11-6,68,56,45,39,32,26,49,42,33,,,,,,,16,7,,0.00,,,287
2012-11-7,78,61,44,37,32,27,58,39,19,,,,,,,14,8,,0.00,,,202
2012-11-8,75,58,41,36,29,21,50,36,20,,,,,,,17,9,,0.00,,,246
2012-11-9,79,62,46,35,30,24,50,30,16,,,,,,,23,12,,0.00,,,214
2012-11-10,75,60,43,42,32,11,58,35,20,,,,,,,36,17,,0.00,,,220
2012-11-11,43,35,27,26,16,9,70,50,27,,,,,,,15,7,,0.00,,,348
2012-11-12,52,38,23,15,7,0,66,35,14,,,,,,,13,7,,0.00,,,241
2012-11-13,60,44,28,11,5,0,33,23,14,,,,,,,22,11,,0.00,,,224
2012-11-14,64,48,32,21,12,5,44,29,16,,,,,,,18,9,,0.00,,,220
2012-11-15,60,46,33,28,17,10,50,38,29,,,,,,,20,10,,0.00,,,338
2012-11-16,59,44,28,33,26,17,68,52,35,,,,,,,20,8,,0.00,,,208
2012-11-17,69,53,37,36,31,26,73,52,26,,,,,,,17,12,,0.00,,,188
2012-11-18,69,54,39,36,32,26,79,48,23,,,,,,,16,10,,0.00,,,211
2012-11-19,68,54,39,31,25,20,49,36,22,,,,,,,12,8,,0.00,,,284
2012-11-20,70,54,39,36,25,20,51,37,19,,,,,,,15,8,,0.00,,,212
2012-11-21,73,56,39,39,28,14,47,34,22,,,,,,,28,14,,0.00,,,206
2012-11-22,68,52,36,37,26,15,52,36,20,,,,,,,20,12,,0.00,,,327
2012-11-23,52,40,28,18,13,10,46,36,23,,,,,,,14,6,,0.00,,,249
2012-11-24,71,53,35,26,18,11,43,30,17,,,,,,,16,11,,0.00,,,223
2012-11-25,57,46,33,25,18,10,54,34,25,,,,,,,12,8,,0.00,,,18
2012-11-26,34,29,24,21,18,14,78,61,48,,,,,,,18,8,,0.00,,,360
2012-11-27,63,43,23,27,19,11,65,47,20,,,,,,,14,9,,0.00,,,196
2012-11-28,57,42,26,28,20,12,64,45,26,,,,,,,14,8,,0.00,,,263
2012-11-29,72,54,35,25,16,9,39,27,16,,,,,,,15,8,,0.00,,,276
2012-11-30,66,51,36,27,20,13,44,34,21,,,,,,,16,7,,0.00,,,205